Home > Weather > Syracuse > Past weeks

Flag for USA Weather for the Past 2 Weeks in Syracuse, New York, USA

Now
61 °F

Mostly cloudy.


Feels Like: 61 °F
Forecast: 44 / 59 °F
Wind: 7 mph from North

Location: Syracuse Hancock International Airport

Current Time: May 4, 2016 at 4:00:02 PM

Latest Report: May 4, 2016 at 1:54 PM


Visibility: 10 mi

Pressure: 29.70 "Hg

Humidity: 70%

Dew Point: 51 °F

Location of SyracuseLocation

Historic Weather in Syracuse — Graph

°F

Syracuse Temperature Yesterday

Maximum temperature yesterday: 57 °F (at 3:54 PM)
Minimum temperature yesterday: 40 °F (at 3:54 AM)
Average temperature yesterday: 48 °F

High & Low Weather Summary for the Past Weeks

 TemperatureHumidityPressure
High76 °F (Apr 21, 1:54 PM)100% (Apr 26, 7:54 AM)30.34 "Hg (Apr 26, 7:54 AM)
Low29 °F (Apr 27, 4:54 AM)14% (Apr 21, 2:54 PM)29.65 "Hg (Apr 26, 7:54 AM)
Average48 °F65%30.00 "Hg
* Reported Apr 19 1:54 PM — May 4 1:54 PM, Syracuse, Weather by CustomWeather, © 2016

Note: Actual official high and low records may vary slightly from our data, if they occured in-between our weather recording intervals... More about our weather records

Advertising

Syracuse Weather History for the Previous 24 Hours

Scroll right to see more
 ConditionsComfort  
Time TempWeatherWind HumidityBarometerVisibility
1:54 PM
Wed, May 4
61 °FMostly cloudy.7 mph70%29.70 "Hg10 mi
12:54 PM58 °FScattered clouds.9 mph72%29.71 "Hg10 mi
11:54 AM58 °FMostly cloudy.7 mph72%29.72 "Hg10 mi
10:54 AM54 °FCloudy.9 mph80%29.72 "Hg10 mi
9:54 AM55 °FMostly cloudy.3 mph77%29.73 "Hg10 mi
8:54 AM53 °FMore clouds than sun.5 mph83%29.74 "Hg10 mi
7:54 AM50 °FPartly sunny.3 mph93%29.75 "Hg10 mi
6:54 AM46 °FPartly sunny.3 mph96%29.74 "Hg10 mi
5:54 AM45 °FPassing clouds.5 mph93%29.73 "Hg10 mi
4:54 AM47 °FOvercast.No wind86%29.74 "Hg10 mi
3:54 AM47 °FMostly cloudy.3 mph80%29.74 "Hg10 mi
2:54 AM48 °FOvercast.3 mph80%29.75 "Hg10 mi
1:54 AM49 °FMostly cloudy.No wind74%29.76 "Hg10 mi
12:54 AM51 °FMostly cloudy.No wind66%29.78 "Hg10 mi
11:54 PM
Tue, May 3
50 °FMostly cloudy.No wind71%29.78 "Hg10 mi
10:54 PM51 °FOvercast.No wind71%29.80 "Hg10 mi
9:54 PM51 °FOvercast.5 mph71%29.81 "Hg10 mi
8:54 PM52 °FMostly cloudy.9 mph66%29.80 "Hg10 mi
7:54 PM55 °FOvercast.No wind57%29.78 "Hg10 mi
6:54 PM56 °FOvercast.No wind55%29.78 "Hg10 mi
5:54 PM57 °FCloudy.No wind53%29.78 "Hg10 mi
4:54 PM57 °FCloudy.No wind53%29.79 "Hg10 mi
Weather by CustomWeather, © 2016

See weather overviewHow to use our weather pages